User: anonymous   Login
Location: Unspecified
(0.0000°N, 0.0000°E)
Time: 16:09:27
(UTC+02:00)
Language:

Cosmos 1315 Rocket - Orbit

View from above orbital plane
View from above orbital plane
View from above satellite
View from above satellite

Ground track
Ground track

The orbit data is extracted from the following two-line orbital elements,

1 12904U 81103B   16206.23729981  .00000696  00000-0  46983-4 0  9990
2 12904  81.1781 290.0246 0029765  65.1927 295.2386 15.04988231443496
Epoch (UTC): 24 July 2016 05:41:42
Eccentricity: 0.0029765
inclination: 81.1781°
perigee height: 531 km
apogee height: 572 km
right ascension of ascending node: 290.0246°
argument of perigee: 65.1927°
revolutions per day: 15.04988231
mean anomaly at epoch: 295.2386°
orbit number at epoch: 44349

The dashed part of the orbit path shows where the satellite is in the earth's shadow,  

DLR